Location: Grasslands National Park East Block
(49.0708°N, 106.5295°W)
Time: 04:55:36
(UTC-06:00)

Vanguard 1 - Pass Details

Date: 29 September 2019
Orbit: 653 x 3830 km, 34.2° (Epoch: 17 October)

Event Time Altitude Azimuth Distance (km) Brightness Sun altitude
Rises 23:18:03 0° 207° (SSW) 6,391 - -39.1°
Reaches altitude 10° 23:22:30 10° 198° (SSW) 5,778 - -39.5°
Maximum altitude 23:38:24 33° 143° (SE) 5,036 - -40.7°
Exits shadow 23:51:05 20° 101° (E) 6,066 13.7 -41.6°
Drops below altitude 10° 23:57:08 10° 90° (E) 6,842 14.1 -41.9°
Sets 00:02:58 0° 82° (E) 7,677 14.5 -42.3°
